| time (UTC) | temp F | wind direction | speed knots | gust knots | rain 1hr in | rain 24hr in | rain mn in | humidity % | barometer mb |
| 20260508181527 | 55 | 236 | 5.2 | 7.0 | 0.00 | 0.00 | 0.00 | 71 | 1020.6 |
| 20260508181025 | 54 | 252 | 5.2 | 6.1 | 0.00 | 0.00 | 0.00 | 71 | 1020.4 |
| 20260508180521 | 54 | 177 | 6.1 | 7.0 | 0.00 | 0.00 | 0.00 | 70 | 1020.5 |
| 20260508180018 | 54 | 173 | 5.2 | 7.8 | 0.00 | 0.00 | 0.00 | 71 | 1020.4 |
| 20260508175514 | 54 | 201 | 7.8 | 11.3 | 0.00 | 0.00 | 0.00 | 71 | 1020.5 |
| 20260508175012 | 54 | 210 | 3.5 | 5.2 | 0.00 | 0.00 | 0.00 | 73 | 1020.4 |
| 20260508174509 | 54 | 180 | 7.8 | 9.6 | 0.00 | 0.00 | 0.00 | 72 | 1020.2 |
| 20260508174006 | 54 | 222 | 6.1 | 8.7 | 0.00 | 0.00 | 0.00 | 73 | 1020.4 |
| 20260508173503 | 54 | 223 | 4.3 | 6.1 | 0.00 | 0.00 | 0.00 | 74 | 1020.2 |
| 20260508172959 | 54 | 181 | 2.6 | 4.3 | 0.00 | 0.00 | 0.00 | 74 | 1020.2 |
| 20260508172456 | 53 | 226 | 5.2 | 7.0 | 0.00 | 0.00 | 0.00 | 74 | 1019.9 |
| 20260508171952 | 54 | 209 | 4.3 | 6.1 | 0.00 | 0.00 | 0.00 | 74 | 1020.0 |
| 20260508171449 | 54 | 161 | 5.2 | 7.8 | 0.00 | 0.00 | 0.00 | 74 | 1019.7 |
| 20260508170945 | 54 | 267 | 2.6 | 4.3 | 0.00 | 0.00 | 0.00 | 74 | 1019.5 |
| 20260508170443 | 53 | 254 | 0.9 | 0.9 | 0.00 | 0.00 | 0.00 | 75 | 1019.8 |
| 20260508165939 | 53 | 171 | 12.2 | 13.9 | 0.00 | 0.00 | 0.00 | 75 | 1019.8 |
| 20260508165438 | 54 | 191 | 6.1 | 6.1 | 0.00 | 0.00 | 0.00 | 75 | 1019.4 |
| 20260508164933 | 54 | 157 | 4.3 | 7.0 | 0.00 | 0.00 | 0.00 | 74 | 1019.6 |
| 20260508164430 | 53 | 186 | 5.2 | 7.0 | 0.00 | 0.00 | 0.00 | 76 | 1019.4 |
| 20260508163927 | 53 | 179 | 8.7 | 9.6 | 0.00 | 0.00 | 0.00 | 76 | 1019.6 |
| 20260508163425 | 53 | 182 | 4.3 | 5.2 | 0.00 | 0.00 | 0.00 | 76 | 1019.5 |
| 20260508162920 | 53 | 188 | 5.2 | 7.0 | 0.00 | 0.00 | 0.00 | 77 | 1019.5 |
| 20260508162418 | 53 | 198 | 4.3 | 6.1 | 0.00 | 0.00 | 0.00 | 77 | 1019.4 |
| 20260508161914 | 53 | 205 | 7.0 | 8.7 | 0.00 | 0.00 | 0.00 | 76 | 1019.4 |
| 20260508161412 | 52 | 190 | 5.2 | 7.0 | 0.00 | 0.00 | 0.00 | 76 | 1019.3 |
| 20260508160909 | 52 | 142 | 4.3 | 6.1 | 0.00 | 0.00 | 0.00 | 77 | 1019.3 |
| 20260508160403 | 53 | 155 | 4.3 | 5.2 | 0.00 | 0.00 | 0.00 | 77 | 1019.4 |
| 20260508155858 | 52 | 185 | 9.6 | 12.2 | 0.00 | 0.00 | 0.00 | 77 | 1019.4 |
| 20260508155355 | 53 | 187 | 6.1 | 7.0 | 0.00 | 0.00 | 0.00 | 76 | 1019.2 |
| 20260508154852 | 53 | 199 | 9.6 | 9.6 | 0.00 | 0.00 | 0.00 | 77 | 1019.4 |
| 20260508154350 | 52 | 197 | 2.6 | 4.3 | 0.00 | 0.00 | 0.00 | 78 | 1019.3 |
| 20260508153846 | 52 | 188 | 4.3 | 6.1 | 0.00 | 0.00 | 0.00 | 79 | 1019.2 |
| 20260508153343 | 51 | 240 | 1.7 | 1.7 | 0.00 | 0.00 | 0.00 | 80 | 1019.5 |
| 20260508152839 | 51 | 190 | 10.4 | 13.0 | 0.00 | 0.00 | 0.00 | 80 | 1019.6 |
| 20260508152336 | 51 | 188 | 5.2 | 7.8 | 0.00 | 0.00 | 0.00 | 80 | 1019.4 |
| 20260508151832 | 52 | 175 | 7.8 | 9.6 | 0.00 | 0.00 | 0.00 | 79 | 1019.5 |
| 20260508151329 | 52 | 185 | 3.5 | 6.1 | 0.00 | 0.00 | 0.00 | 80 | 1019.5 |
| 20260508150826 | 52 | 195 | 3.5 | 6.1 | 0.00 | 0.00 | 0.00 | 80 | 1019.4 |
| 20260508150322 | 51 | 153 | 9.6 | 13.0 | 0.00 | 0.00 | 0.00 | 80 | 1019.2 |
| 20260508145818 | 51 | 202 | 6.1 | 7.0 | 0.00 | 0.00 | 0.00 | 81 | 1019.2 |
| 20260508145314 | 51 | 263 | 6.1 | 7.0 | 0.00 | 0.00 | 0.00 | 82 | 1019.2 |
| 20260508144812 | 51 | 209 | 5.2 | 8.7 | 0.00 | 0.00 | 0.00 | 83 | 1019.2 |
| 20260508144309 | 51 | 191 | 9.6 | 13.0 | 0.00 | 0.00 | 0.00 | 83 | 1018.9 |
| 20260508143801 | 51 | 251 | 7.0 | 11.3 | 0.00 | 0.00 | 0.00 | 83 | 1019.0 |
| 20260508143258 | 51 | 187 | 2.6 | 6.1 | 0.00 | 0.00 | 0.00 | 84 | 1018.8 |
| 20260508142755 | 50 | 191 | 2.6 | 4.3 | 0.00 | 0.00 | 0.00 | 84 | 1018.7 |
| 20260508142252 | 50 | 215 | 4.3 | 6.1 | 0.00 | 0.00 | 0.00 | 86 | 1018.6 |
| 20260508141748 | 50 | 178 | 4.3 | 6.1 | 0.00 | 0.00 | 0.00 | 86 | 1018.7 |
| 20260508141246 | 50 | 185 | 5.2 | 6.1 | 0.00 | 0.00 | 0.00 | 86 | 1018.7 |
| 20260508140743 | 50 | 196 | 6.1 | 7.8 | 0.00 | 0.00 | 0.00 | 86 | 1018.6 |
| 20260508140239 | 50 | 199 | 6.1 | 7.0 | 0.00 | 0.00 | 0.00 | 86 | 1018.2 |
| 20260508135735 | 51 | 186 | 3.5 | 4.3 | 0.00 | 0.00 | 0.00 | 86 | 1018.4 |
| 20260508135232 | 51 | 195 | 6.1 | 7.0 | 0.00 | 0.00 | 0.00 | 86 | 1018.1 |
| 20260508134727 | 51 | 190 | 6.1 | 6.1 | 0.00 | 0.00 | 0.00 | 85 | 1018.2 |
| 20260508134225 | 51 | 198 | 5.2 | 6.1 | 0.00 | 0.00 | 0.00 | 85 | 1018.0 |
| 20260508133721 | 51 | 201 | 2.6 | 2.6 | 0.00 | 0.00 | 0.00 | 85 | 1017.9 |
| 20260508133219 | 51 | 161 | 5.2 | 7.0 | 0.00 | 0.00 | 0.00 | 85 | 1017.5 |
| 20260508132717 | 51 | 180 | 4.3 | 5.2 | 0.00 | 0.00 | 0.00 | 85 | 1017.5 |
| 20260508132214 | 51 | 172 | 4.3 | 6.1 | 0.00 | 0.00 | 0.00 | 85 | 1017.7 |
| 20260508131709 | 51 | 199 | 2.6 | 2.6 | 0.00 | 0.00 | 0.00 | 85 | 1017.8 |
| 20260508131206 | 51 | 200 | 2.6 | 2.6 | 0.00 | 0.00 | 0.00 | 85 | 1017.6 |
| 20260508130703 | 51 | 199 | 2.6 | 4.3 | 0.00 | 0.00 | 0.00 | 85 | 1017.5 |
| 20260508130200 | 51 | 212 | 5.2 | 7.0 | 0.00 | 0.00 | 0.00 | 86 | 1017.5 |
| 20260508125655 | 51 | 156 | 0.9 | 0.9 | 0.00 | 0.00 | 0.00 | 86 | 1017.4 |
| 20260508125152 | 51 | 196 | 0.9 | 0.9 | 0.00 | 0.00 | 0.00 | 86 | 1017.3 |
| 20260508124650 | 51 | 220 | 1.7 | 1.7 | 0.00 | 0.00 | 0.00 | 87 | 1017.1 |
| 20260508124147 | 51 | 217 | 2.6 | 4.3 | 0.00 | 0.00 | 0.00 | 87 | 1017.2 |
| 20260508123646 | 51 | 206 | 3.5 | 5.2 | 0.00 | 0.00 | 0.00 | 87 | 1017.1 |
| 20260508123143 | 51 | 212 | 0.9 | 1.7 | 0.00 | 0.00 | 0.00 | 88 | 1017.1 |
| 20260508122639 | 51 | 196 | 5.2 | 6.1 | 0.00 | 0.00 | 0.00 | 88 | 1017.3 |
| 20260508122136 | 51 | 221 | 2.6 | 4.3 | 0.00 | 0.00 | 0.00 | 89 | 1017.1 |
| 20260508121634 | 51 | 234 | 2.6 | 2.6 | 0.00 | 0.00 | 0.00 | 89 | 1017.0 |
| 20260508121132 | 51 | 157 | 0.9 | 0.9 | 0.00 | 0.00 | 0.00 | 89 | 1017.0 |
| 20260508120629 | 51 | 155 | 1.7 | 1.7 | 0.00 | 0.00 | 0.00 | 89 | 1017.0 |
| 20260508120127 | 51 | 189 | 1.7 | 1.7 | 0.00 | 0.00 | 0.00 | 89 | 1017.1 |
| 20260508115625 | 51 | 180 | 1.7 | 2.6 | 0.00 | 0.00 | 0.00 | 89 | 1017.2 |
| 20260508115121 | 51 | 192 | 4.3 | 6.1 | 0.00 | 0.00 | 0.00 | 90 | 1017.0 |
| 20260508114618 | 51 | 188 | 4.3 | 5.2 | 0.00 | 0.00 | 0.00 | 90 | 1017.0 |
| 20260508114114 | 52 | 227 | 0.0 | 0.0 | 0.00 | 0.00 | 0.00 | 90 | 1017.2 |
| 20260508113612 | 52 | 194 | 4.3 | 6.1 | 0.00 | 0.00 | 0.00 | 90 | 1016.9 |
| 20260508113110 | 52 | 220 | 3.5 | 4.3 | 0.00 | 0.00 | 0.00 | 91 | 1017.0 |
| 20260508112605 | 51 | 197 | 3.5 | 5.2 | 0.00 | 0.00 | 0.00 | 91 | 1016.8 |
| 20260508112103 | 52 | 232 | 0.0 | 0.0 | 0.00 | 0.00 | 0.00 | 91 | 1016.7 |
| 20260508111559 | 52 | 222 | 0.9 | 1.7 | 0.00 | 0.00 | 0.00 | 91 | 1016.6 |
| 20260508111057 | 51 | 178 | 1.7 | 1.7 | 0.00 | 0.00 | 0.00 | 91 | 1016.7 |
| 20260508110555 | 51 | 214 | 1.7 | 1.7 | 0.00 | 0.00 | 0.00 | 92 | 1016.6 |
| 20260508110050 | 51 | 252 | 0.0 | 0.9 | 0.00 | 0.00 | 0.00 | 92 | 1016.4 |
| 20260508105545 | 51 | 262 | 0.0 | 0.0 | 0.00 | 0.00 | 0.00 | 92 | 1016.6 |
| 20260508105043 | 51 | 256 | 0.0 | 0.0 | 0.00 | 0.00 | 0.00 | 92 | 1016.7 |
| 20260508104541 | 51 | 252 | 0.9 | 0.9 | 0.00 | 0.00 | 0.00 | 93 | 1016.5 |
| 20260508104037 | 51 | 265 | 0.9 | 0.9 | 0.00 | 0.00 | 0.00 | 93 | 1016.4 |
| 20260508103534 | 51 | 274 | 0.9 | 0.9 | 0.00 | 0.00 | 0.00 | 93 | 1016.2 |
| 20260508103031 | 51 | 273 | 0.0 | 0.0 | 0.00 | 0.00 | 0.00 | 94 | 1016.5 |
| 20260508102529 | 51 | 272 | 0.9 | 0.9 | 0.00 | 0.00 | 0.00 | 94 | 1016.4 |
| 20260508102026 | 51 | 273 | 0.0 | 0.0 | 0.00 | 0.00 | 0.00 | 94 | 1016.6 |
| 20260508101524 | 51 | 260 | 1.7 | 2.6 | 0.00 | 0.00 | 0.00 | 94 | 1016.5 |
| 20260508101020 | 51 | 282 | 0.0 | 0.0 | 0.00 | 0.00 | 0.00 | 94 | 1016.1 |
| 20260508100519 | 51 | 277 | 0.0 | 0.0 | 0.00 | 0.00 | 0.00 | 94 | 1016.0 |
| 20260508100015 | 51 | 290 | 0.0 | 0.0 | 0.00 | 0.00 | 0.00 | 94 | 1016.1 |
| 20260508095513 | 51 | 293 | 0.0 | 0.9 | 0.00 | 0.00 | 0.00 | 94 | 1016.4 |
| 20260508095009 | 51 | 285 | 0.0 | 0.0 | 0.00 | 0.00 | 0.00 | 94 | 1016.2 |
| 20260508094506 | 51 | 287 | 0.9 | 0.9 | 0.00 | 0.00 | 0.00 | 94 | 1016.2 |
| 20260508094003 | 51 | 288 | 0.0 | 0.9 | 0.00 | 0.00 | 0.00 | 93 | 1016.4 |
| 20260508093500 | 51 | 281 | 0.9 | 0.9 | 0.00 | 0.00 | 0.00 | 93 | 1016.3 |
| 20260508092958 | 51 | 295 | 0.0 | 0.0 | 0.00 | 0.00 | 0.00 | 93 | 1015.8 |
| 20260508092455 | 51 | 300 | 0.0 | 0.0 | 0.00 | 0.00 | 0.00 | 93 | 1016.1 |
| 20260508091954 | 51 | 292 | 0.9 | 0.9 | 0.00 | 0.00 | 0.00 | 93 | 1016.1 |
| 20260508091450 | 51 | 299 | 0.9 | 1.7 | 0.00 | 0.00 | 0.00 | 93 | 1016.4 |
| 20260508090947 | 51 | 274 | 0.9 | 1.7 | 0.00 | 0.00 | 0.00 | 93 | 1016.0 |
| 20260508090446 | 51 | 280 | 0.9 | 2.6 | 0.00 | 0.00 | 0.00 | 93 | 1016.1 |
| 20260508085941 | 51 | 279 | 0.0 | 0.0 | 0.00 | 0.00 | 0.00 | 93 | 1016.2 |
| 20260508085438 | 51 | 283 | 0.0 | 0.0 | 0.00 | 0.00 | 0.00 | 93 | 1016.1 |
| 20260508084935 | 51 | 292 | 0.0 | 0.0 | 0.00 | 0.00 | 0.00 | 92 | 1016.2 |
| 20260508084432 | 52 | 293 | 0.0 | 0.0 | 0.00 | 0.00 | 0.00 | 92 | 1016.3 |
| 20260508083930 | 52 | 285 | 0.0 | 0.0 | 0.00 | 0.00 | 0.00 | 92 | 1016.3 |
| 20260508083427 | 52 | 292 | 0.0 | 0.0 | 0.00 | 0.00 | 0.00 | 92 | 1016.3 |
| 20260508082926 | 52 | 289 | 0.0 | 0.0 | 0.00 | 0.00 | 0.00 | 92 | 1016.1 |
| 20260508082424 | 52 | 286 | 0.0 | 0.0 | 0.00 | 0.00 | 0.00 | 92 | 1016.3 |
| 20260508081922 | 52 | 290 | 0.0 | 0.0 | 0.00 | 0.00 | 0.00 | 92 | 1016.3 |
| 20260508081418 | 52 | 285 | 0.0 | 0.0 | 0.00 | 0.00 | 0.00 | 92 | 1016.4 |
| 20260508080915 | 52 | 291 | 0.0 | 0.0 | 0.00 | 0.00 | 0.00 | 91 | 1016.3 |
| 20260508080413 | 52 | 275 | 0.0 | 0.0 | 0.00 | 0.00 | 0.00 | 91 | 1016.3 |
| 20260508075909 | 53 | 279 | 0.0 | 0.0 | 0.00 | 0.00 | 0.00 | 91 | 1016.3 |
| 20260508075407 | 53 | 281 | 0.0 | 0.0 | 0.00 | 0.00 | 0.00 | 91 | 1016.2 |
| 20260508074904 | 53 | 290 | 0.0 | 0.0 | 0.00 | 0.00 | 0.00 | 90 | 1016.2 |
| 20260508074401 | 53 | 280 | 0.0 | 0.0 | 0.00 | 0.00 | 0.00 | 90 | 1016.4 |
| 20260508073858 | 53 | 281 | 0.0 | 0.0 | 0.00 | 0.00 | 0.00 | 90 | 1016.3 |
| 20260508073356 | 53 | 279 | 0.0 | 0.0 | 0.00 | 0.00 | 0.00 | 90 | 1016.4 |
| 20260508072852 | 53 | 279 | 0.0 | 0.0 | 0.00 | 0.00 | 0.00 | 90 | 1016.1 |
| 20260508072349 | 53 | 281 | 0.0 | 0.0 | 0.00 | 0.00 | 0.00 | 90 | 1016.5 |
| 20260508071846 | 53 | 281 | 0.0 | 0.0 | 0.00 | 0.00 | 0.00 | 90 | 1016.1 |
| 20260508071345 | 53 | 290 | 0.0 | 0.0 | 0.00 | 0.00 | 0.00 | 89 | 1016.3 |
| 20260508070842 | 53 | 290 | 0.0 | 0.0 | 0.00 | 0.00 | 0.00 | 89 | 1016.2 |
| 20260508070340 | 54 | 286 | 0.0 | 0.0 | 0.00 | 0.00 | 0.00 | 89 | 1016.3 |
| 20260508065837 | 53 | 273 | 0.0 | 0.0 | 0.00 | 0.00 | 0.00 | 89 | 1016.4 |
| 20260508065335 | 53 | 288 | 0.0 | 0.0 | 0.00 | 0.00 | 0.00 | 88 | 1016.5 |
| 20260508064833 | 53 | 287 | 0.0 | 0.0 | 0.00 | 0.00 | 0.00 | 88 | 1016.5 |
| 20260508064330 | 54 | 286 | 0.0 | 0.0 | 0.00 | 0.00 | 0.00 | 88 | 1016.5 |
| 20260508063828 | 54 | 286 | 0.0 | 0.0 | 0.00 | 0.00 | 0.00 | 87 | 1016.2 |
| 20260508063326 | 54 | 282 | 0.0 | 0.0 | 0.00 | 0.00 | 0.00 | 85 | 1016.4 |
| 20260508062822 | 53 | 290 | 0.0 | 0.0 | 0.00 | 0.00 | 0.00 | 83 | 1016.3 |
| 20260508062320 | 54 | 287 | 0.0 | 0.0 | 0.00 | 0.00 | 0.00 | 83 | 1016.5 |
| 20260508061816 | 54 | 288 | 0.0 | 0.0 | 0.00 | 0.00 | 0.00 | 82 | 1016.3 |
| 20260508061314 | 55 | 290 | 0.0 | 0.0 | 0.00 | 0.00 | 0.00 | 82 | 1016.4 |
| 20260508060810 | 55 | 289 | 0.0 | 0.0 | 0.00 | 0.00 | 0.00 | 81 | 1016.5 |
| 20260508060308 | 55 | 287 | 0.0 | 0.0 | 0.00 | 0.00 | 0.00 | 80 | 1016.3 |
| 20260508055803 | 56 | 300 | 0.0 | 0.0 | 0.00 | 0.00 | 0.00 | 79 | 1016.6 |
| 20260508055301 | 56 | 296 | 0.0 | 0.0 | 0.00 | 0.00 | 0.00 | 78 | 1016.7 |
| 20260508054756 | 57 | 286 | 0.0 | 0.0 | 0.00 | 0.00 | 0.00 | 77 | 1016.6 |
| 20260508054255 | 57 | 288 | 0.0 | 0.0 | 0.00 | 0.00 | 0.00 | 76 | 1016.5 |
| 20260508053751 | 57 | 287 | 0.0 | 0.0 | 0.00 | 0.00 | 0.00 | 75 | 1016.6 |
| 20260508053249 | 57 | 286 | 0.0 | 0.0 | 0.00 | 0.00 | 0.00 | 74 | 1016.4 |
| 20260508052746 | 57 | 287 | 0.0 | 0.0 | 0.00 | 0.00 | 0.00 | 75 | 1016.6 |
| 20260508052243 | 57 | 314 | 0.0 | 0.0 | 0.00 | 0.00 | 0.00 | 74 | 1016.5 |
| 20260508051739 | 57 | 339 | 0.0 | 0.0 | 0.00 | 0.00 | 0.00 | 73 | 1016.5 |
| 20260508051235 | 58 | 348 | 0.0 | 0.0 | 0.00 | 0.00 | 0.00 | 73 | 1016.3 |
| 20260508050731 | 58 | 28 | 0.0 | 0.0 | 0.00 | 0.00 | 0.00 | 72 | 1016.4 |
| 20260508050230 | 58 | 26 | 0.0 | 0.0 | 0.00 | 0.00 | 0.00 | 72 | 1016.5 |
| 20260508045724 | 58 | 359 | 0.0 | 0.0 | 0.00 | 0.00 | 0.00 | 72 | 1016.5 |
| 20260508045222 | 58 | 359 | 0.0 | 0.0 | 0.00 | 0.00 | 0.00 | 72 | 1016.6 |
| 20260508044720 | 59 | 340 | 0.0 | 0.0 | 0.00 | 0.00 | 0.00 | 71 | 1016.5 |
| 20260508044216 | 59 | 14 | 0.0 | 0.0 | 0.00 | 0.00 | 0.00 | 71 | 1016.6 |
| 20260508043712 | 59 | 357 | 0.0 | 0.0 | 0.00 | 0.00 | 0.00 | 71 | 1016.6 |
| 20260508043210 | 59 | 34 | 0.0 | 0.0 | 0.00 | 0.00 | 0.00 | 70 | 1016.6 |
| 20260508042706 | 59 | 15 | 0.0 | 0.0 | 0.00 | 0.00 | 0.00 | 70 | 1016.6 |
| 20260508042204 | 59 | 350 | 0.0 | 0.0 | 0.00 | 0.00 | 0.00 | 70 | 1016.7 |
| 20260508041700 | 59 | 17 | 0.0 | 0.0 | 0.00 | 0.00 | 0.00 | 69 | 1016.9 |
| 20260508041157 | 59 | 344 | 0.0 | 0.0 | 0.00 | 0.00 | 0.00 | 69 | 1016.6 |
| 20260508040653 | 60 | 334 | 0.0 | 0.0 | 0.00 | 0.00 | 0.00 | 69 | 1016.7 |
| 20260508040151 | 60 | 343 | 0.0 | 0.0 | 0.00 | 0.00 | 0.00 | 68 | 1016.7 |
| 20260508035648 | 60 | 346 | 0.9 | 0.9 | 0.00 | 0.00 | 0.00 | 68 | 1016.7 |
| 20260508035145 | 60 | 3 | 0.9 | 0.9 | 0.00 | 0.00 | 0.00 | 68 | 1016.5 |
| 20260508034642 | 60 | 7 | 1.7 | 1.7 | 0.00 | 0.00 | 0.00 | 68 | 1016.4 |
| 20260508034139 | 60 | 29 | 2.6 | 2.6 | 0.00 | 0.00 | 0.00 | 67 | 1016.5 |
| 20260508033636 | 60 | 16 | 1.7 | 1.7 | 0.00 | 0.00 | 0.00 | 68 | 1016.4 |
| 20260508033134 | 61 | 345 | 0.0 | 0.0 | 0.00 | 0.00 | 0.00 | 67 | 1016.6 |
| 20260508032630 | 61 | 358 | 0.9 | 0.9 | 0.00 | 0.00 | 0.00 | 66 | 1016.5 |
| 20260508032128 | 61 | 4 | 0.9 | 1.7 | 0.00 | 0.00 | 0.00 | 66 | 1016.7 |
| 20260508031625 | 61 | 357 | 1.7 | 1.7 | 0.00 | 0.00 | 0.00 | 65 | 1016.5 |
| 20260508031121 | 61 | 17 | 1.7 | 2.6 | 0.00 | 0.00 | 0.00 | 64 | 1016.5 |
| 20260508030618 | 62 | 2 | 0.9 | 1.7 | 0.00 | 0.00 | 0.00 | 64 | 1016.6 |
| 20260508030116 | 62 | 298 | 0.0 | 0.0 | 0.00 | 0.00 | 0.00 | 63 | 1016.6 |
| 20260508025612 | 63 | 296 | 0.0 | 0.9 | 0.00 | 0.00 | 0.00 | 62 | 1016.7 |
| 20260508025109 | 63 | 311 | 0.9 | 0.9 | 0.00 | 0.00 | 0.00 | 62 | 1016.6 |
| 20260508024605 | 63 | 289 | 0.9 | 1.7 | 0.00 | 0.00 | 0.00 | 61 | 1016.9 |
| 20260508024102 | 63 | 286 | 0.0 | 0.0 | 0.00 | 0.00 | 0.00 | 62 | 1016.8 |
| 20260508023558 | 63 | 297 | 0.0 | 0.0 | 0.00 | 0.00 | 0.00 | 61 | 1016.8 |
| 20260508023056 | 63 | 293 | 0.9 | 0.9 | 0.00 | 0.00 | 0.00 | 61 | 1016.6 |
| 20260508022551 | 63 | 293 | 0.0 | 0.9 | 0.00 | 0.00 | 0.00 | 61 | 1016.6 |
| 20260508022049 | 63 | 293 | 0.0 | 0.9 | 0.00 | 0.00 | 0.00 | 61 | 1016.9 |
| 20260508021544 | 64 | 284 | 3.5 | 4.3 | 0.00 | 0.00 | 0.00 | 59 | 1016.8 |
| 20260508021040 | 65 | 235 | 0.9 | 1.7 | 0.00 | 0.00 | 0.00 | 58 | 1016.8 |
| 20260508020538 | 64 | 305 | 0.0 | 0.0 | 0.00 | 0.00 | 0.00 | 58 | 1017.0 |
| 20260508020036 | 65 | 292 | 2.6 | 2.6 | 0.00 | 0.00 | 0.00 | 58 | 1017.0 |
| 20260508015533 | 65 | 297 | 0.0 | 0.0 | 0.00 | 0.00 | 0.00 | 57 | 1016.8 |
| 20260508015030 | 64 | 314 | 0.0 | 0.0 | 0.00 | 0.00 | 0.00 | 57 | 1017.0 |
| 20260508014526 | 64 | 197 | 1.7 | 2.6 | 0.00 | 0.00 | 0.00 | 57 | 1016.8 |
| 20260508014022 | 64 | 229 | 1.7 | 1.7 | 0.00 | 0.00 | 0.00 | 58 | 1016.8 |
| 20260508013519 | 64 | 317 | 0.0 | 0.0 | 0.00 | 0.00 | 0.00 | 58 | 1016.9 |
| 20260508013016 | 64 | 163 | 3.5 | 4.3 | 0.00 | 0.00 | 0.00 | 58 | 1016.9 |
| 20260508012513 | 64 | 116 | 3.5 | 5.2 | 0.00 | 0.00 | 0.00 | 57 | 1017.1 |
| 20260508012011 | 63 | 345 | 0.0 | 0.9 | 0.00 | 0.00 | 0.00 | 59 | 1017.1 |
| 20260508011509 | 66 | 151 | 3.5 | 4.3 | 0.00 | 0.00 | 0.00 | 57 | 1017.0 |
| 20260508011006 | 66 | 287 | 0.0 | 0.9 | 0.00 | 0.00 | 0.00 | 56 | 1017.3 |
| 20260508010502 | 66 | 273 | 1.7 | 1.7 | 0.00 | 0.00 | 0.00 | 55 | 1017.3 |
| 20260508010000 | 66 | 262 | 2.6 | 2.6 | 0.00 | 0.00 | 0.00 | 55 | 1017.4 |
| 20260508005456 | 65 | 319 | 0.0 | 0.0 | 0.00 | 0.00 | 0.00 | 56 | 1017.4 |
| 20260508004953 | 64 | 63 | 1.7 | 1.7 | 0.00 | 0.00 | 0.00 | 57 | 1017.5 |
| 20260508004449 | 65 | 354 | 3.5 | 4.3 | 0.00 | 0.00 | 0.00 | 57 | 1017.4 |
| 20260508003946 | 64 | 346 | 0.9 | 1.7 | 0.00 | 0.00 | 0.00 | 59 | 1017.4 |
| 20260508003443 | 65 | 12 | 3.5 | 4.3 | 0.00 | 0.00 | 0.00 | 58 | 1017.6 |
| 20260508002940 | 65 | 233 | 0.9 | 0.9 | 0.00 | 0.00 | 0.00 | 57 | 1017.7 |
| 20260508002436 | 65 | 297 | 0.9 | 0.9 | 0.00 | 0.00 | 0.00 | 58 | 1017.7 |
| 20260508001932 | 65 | 349 | 0.9 | 1.7 | 0.00 | 0.00 | 0.00 | 57 | 1017.5 |
| 20260508001429 | 65 | 273 | 4.3 | 5.2 | 0.00 | 0.00 | 0.00 | 56 | 1017.8 |
| 20260508000925 | 66 | 261 | 0.9 | 1.7 | 0.00 | 0.00 | 0.00 | 57 | 1017.6 |
| 20260508000421 | 64 | 299 | 1.7 | 2.6 | 0.00 | 0.00 | 0.00 | 60 | 1017.8 |
| 20260507235918 | 63 | 320 | 0.9 | 1.7 | 0.00 | 0.00 | 0.00 | 62 | 1017.7 |
| 20260507235415 | 64 | 256 | 0.0 | 0.0 | 0.00 | 0.00 | 0.00 | 60 | 1017.8 |
| 20260507234912 | 64 | 285 | 1.7 | 2.6 | 0.00 | 0.00 | 0.00 | 61 | 1018.0 |
| 20260507234409 | 64 | 316 | 0.0 | 0.0 | 0.00 | 0.00 | 0.00 | 60 | 1017.8 |
| 20260507233906 | 63 | 283 | 5.2 | 6.1 | 0.00 | 0.00 | 0.00 | 61 | 1017.8 |
| 20260507233403 | 64 | 261 | 4.3 | 5.2 | 0.00 | 0.00 | 0.00 | 60 | 1017.7 |
| 20260507232901 | 63 | 311 | 1.7 | 2.6 | 0.00 | 0.00 | 0.00 | 61 | 1018.0 |
| 20260507232357 | 65 | 284 | 2.6 | 5.2 | 0.00 | 0.00 | 0.00 | 60 | 1017.9 |
| 20260507231855 | 63 | 302 | 3.5 | 5.2 | 0.00 | 0.00 | 0.00 | 61 | 1017.9 |
| 20260507231351 | 64 | 297 | 5.2 | 7.0 | 0.00 | 0.00 | 0.00 | 60 | 1018.0 |
| 20260507230848 | 64 | 296 | 0.0 | 0.9 | 0.00 | 0.00 | 0.00 | 61 | 1018.2 |
| 20260507230345 | 63 | 259 | 3.5 | 6.1 | 0.00 | 0.00 | 0.00 | 61 | 1018.2 |
| 20260507225845 | 62 | 325 | 3.5 | 5.2 | 0.00 | 0.00 | 0.00 | 61 | 1018.1 |
| 20260507225341 | 64 | 301 | 4.3 | 6.1 | 0.00 | 0.00 | 0.00 | 60 | 1018.3 |
| 20260507224837 | 63 | 306 | 2.6 | 4.3 | 0.00 | 0.00 | 0.00 | 61 | 1018.4 |
| 20260507224334 | 63 | 320 | 2.6 | 4.3 | 0.00 | 0.00 | 0.00 | 61 | 1018.5 |
| 20260507223830 | 64 | 257 | 5.2 | 6.1 | 0.00 | 0.00 | 0.00 | 60 | 1018.3 |
| 20260507223326 | 63 | 241 | 3.5 | 5.2 | 0.00 | 0.00 | 0.00 | 60 | 1018.3 |
| 20260507222824 | 63 | 294 | 0.9 | 0.9 | 0.00 | 0.00 | 0.00 | 61 | 1018.5 |
| 20260507222320 | 66 | 303 | 5.2 | 7.0 | 0.00 | 0.00 | 0.00 | 57 | 1018.6 |
| 20260507221817 | 64 | 261 | 3.5 | 5.2 | 0.00 | 0.00 | 0.00 | 59 | 1018.5 |
| 20260507221314 | 65 | 268 | 0.9 | 1.7 | 0.00 | 0.00 | 0.00 | 59 | 1018.5 |
| 20260507220810 | 65 | 295 | 5.2 | 7.0 | 0.00 | 0.00 | 0.00 | 57 | 1018.4 |
| 20260507220308 | 66 | 305 | 4.3 | 5.2 | 0.00 | 0.00 | 0.00 | 56 | 1018.6 |
| 20260507215804 | 65 | 304 | 0.9 | 0.9 | 0.00 | 0.00 | 0.00 | 58 | 1018.6 |
| 20260507215306 | 66 | 305 | 0.9 | 1.7 | 0.00 | 0.00 | 0.00 | 57 | 1018.5 |
| 20260507214759 | 65 | 334 | 2.6 | 4.3 | 0.00 | 0.00 | 0.00 | 58 | 1018.6 |
| 20260507214256 | 63 | 315 | 0.0 | 0.0 | 0.00 | 0.00 | 0.00 | 61 | 1018.9 |
| 20260507213750 | 65 | 243 | 2.6 | 2.6 | 0.00 | 0.00 | 0.00 | 58 | 1018.9 |
| 20260507213248 | 62 | 178 | 1.7 | 2.6 | 0.00 | 0.00 | 0.00 | 63 | 1018.9 |
| 20260507212745 | 63 | 223 | 3.5 | 5.2 | 0.00 | 0.00 | 0.00 | 62 | 1018.7 |
| 20260507212241 | 64 | 264 | 4.3 | 7.0 | 0.00 | 0.00 | 0.00 | 60 | 1019.0 |
| 20260507211737 | 63 | 319 | 0.9 | 0.9 | 0.00 | 0.00 | 0.00 | 60 | 1019.0 |
| 20260507211234 | 64 | 319 | 2.6 | 4.3 | 0.00 | 0.00 | 0.00 | 59 | 1019.0 |
| 20260507210731 | 63 | 290 | 0.9 | 0.9 | 0.00 | 0.00 | 0.00 | 62 | 1019.0 |
| 20260507210228 | 63 | 276 | 2.6 | 4.3 | 0.00 | 0.00 | 0.00 | 61 | 1019.2 |
| 20260507205724 | 62 | 227 | 1.7 | 2.6 | 0.00 | 0.00 | 0.00 | 63 | 1019.3 |
| 20260507205221 | 63 | 298 | 0.9 | 0.9 | 0.00 | 0.00 | 0.00 | 63 | 1019.4 |
| 20260507204717 | 63 | 183 | 2.6 | 2.6 | 0.00 | 0.00 | 0.00 | 62 | 1019.3 |
| 20260507204215 | 63 | 266 | 3.5 | 5.2 | 0.00 | 0.00 | 0.00 | 62 | 1019.4 |
| 20260507203713 | 62 | 273 | 4.3 | 6.1 | 0.00 | 0.00 | 0.00 | 64 | 1019.4 |
| 20260507203210 | 63 | 201 | 0.9 | 1.7 | 0.00 | 0.00 | 0.00 | 61 | 1019.4 |
| 20260507202706 | 60 | 285 | 2.6 | 2.6 | 0.00 | 0.00 | 0.00 | 66 | 1019.5 |
| 20260507202202 | 60 | 348 | 2.6 | 4.3 | 0.00 | 0.00 | 0.00 | 66 | 1019.6 |
| 20260507201657 | 60 | 257 | 2.6 | 2.6 | 0.00 | 0.00 | 0.00 | 68 | 1019.8 |
| 20260507201154 | 60 | 260 | 5.2 | 6.1 | 0.00 | 0.00 | 0.00 | 65 | 1019.7 |
| 20260507200650 | 60 | 267 | 2.6 | 2.6 | 0.00 | 0.00 | 0.00 | 66 | 1019.5 |
| 20260507200146 | 60 | 176 | 1.7 | 1.7 | 0.00 | 0.00 | 0.00 | 67 | 1019.8 |
| 20260507195643 | 61 | 214 | 3.5 | 4.3 | 0.00 | 0.00 | 0.00 | 63 | 1019.8 |
| 20260507195140 | 61 | 107 | 2.6 | 4.3 | 0.00 | 0.00 | 0.00 | 63 | 1019.8 |
| 20260507194637 | 61 | 41 | 1.7 | 1.7 | 0.00 | 0.00 | 0.00 | 64 | 1019.7 |
| 20260507194132 | 61 | 348 | 0.9 | 0.9 | 0.00 | 0.00 | 0.00 | 64 | 1019.8 |
| 20260507193630 | 62 | 261 | 0.0 | 0.9 | 0.00 | 0.00 | 0.00 | 62 | 1020.0 |
| 20260507193127 | 61 | 273 | 0.0 | 0.9 | 0.00 | 0.00 | 0.00 | 65 | 1020.0 |
| 20260507192623 | 61 | 161 | 0.9 | 1.7 | 0.00 | 0.00 | 0.00 | 64 | 1019.9 |
| 20260507192120 | 60 | 304 | 0.0 | 0.9 | 0.00 | 0.00 | 0.00 | 66 | 1019.9 |
| 20260507191616 | 59 | 271 | 0.9 | 2.6 | 0.00 | 0.00 | 0.00 | 67 | 1019.7 |
| 20260507191112 | 60 | 257 | 2.6 | 2.6 | 0.00 | 0.00 | 0.00 | 66 | 1020.0 |
| 20260507190610 | 60 | 297 | 4.3 | 5.2 | 0.00 | 0.00 | 0.00 | 65 | 1020.1 |
| 20260507190109 | 59 | 253 | 2.6 | 2.6 | 0.00 | 0.00 | 0.00 | 68 | 1020.1 |
| 20260507185607 | 59 | 217 | 4.3 | 5.2 | 0.00 | 0.00 | 0.00 | 67 | 1020.1 |
| 20260507185103 | 59 | 229 | 0.9 | 0.9 | 0.00 | 0.00 | 0.00 | 67 | 1020.2 |
| 20260507184601 | 59 | 197 | 2.6 | 2.6 | 0.00 | 0.00 | 0.00 | 65 | 1020.1 |
| 20260507184059 | 59 | 162 | 5.2 | 6.1 | 0.00 | 0.00 | 0.00 | 67 | 1020.2 |
| 20260507183554 | 58 | 125 | 0.0 | 0.9 | 0.00 | 0.00 | 0.00 | 69 | 1020.2 |
| 20260507183052 | 59 | 115 | 2.6 | 4.3 | 0.00 | 0.00 | 0.00 | 68 | 1020.1 |
| 20260507182548 | 58 | 198 | 5.2 | 7.0 | 0.00 | 0.00 | 0.00 | 68 | 1020.0 |
| 20260507182044 | 57 | 172 | 4.3 | 5.2 | 0.00 | 0.00 | 0.00 | 71 | 1020.2 |